Theta_e
315 315 314 313 311 309 310 310 303 313 315 303 304 296 299 299 301 303 301 300 298 296 296 294 294 295 297 302 299 294 295 288 285 290 298 300 297 293 291 289 289 293 292 294
315 315 314 312 310 310 306 306 308 314 313 297 298 301 300 300 298 298 298 298 299 298 294 290 295 296 302 302 299 294 294 288 283 287 290 295 293 296 294 292 291 290 287 293
315 315 314 312 311 311 307 308 301 306 307 305 300 298 298 297 302 299 300 299 299 296 293 294 293 295 299 301 300 305 299 287 285 282 287 291 290 293 295 292 285 287 289 294
315 315 314 313 312 310 309 310 301 303 296 299 299 299 298 295 294 299 300 299 297 294 290 292 292 295 296 300 304 298 292 284 287 289 292 292 292 292 294 291 292 286 291 293
315 316 315 314 312 310 312 304 304 304 301 302 299 298 296 295 295 297 295 294 296 296 290 293 290 293 292 292 297 295 295 287 290 289 293 292 290 293 294 294 294 294 294 294
315 315 315 314 312 311 312 313 314 308 301 299 296 295 296 296 298 299 299 297 295 294 295 298 297 297 296 295 292 291 291 288 287 283 290 290 285 290 292 293 296 295 290 295
315 315 316 315 314 312 313 314 312 305 297 299 298 299 299 298 299 297 299 299 295 299 303 301 299 297 296 296 295 294 289 289 287 283 285 279 289 296 296 294 296 301 302 301
315 316 316 316 315 313 313 317 313 308 299 301 301 301 300 301 300 298 299 300 301 303 300 292 289 290 292 293 296 294 293 290 284 282 281 286 290 292 296 295 294 302 301 303
314 316 316 316 316 314 315 317 319 313 305 299 304 301 302 297 296 299 300 304 304 302 296 291 285 285 288 287 290 295 294 293 289 285 279 278 289 298 302 300 288 301 301 301
314 315 315 316 317 315 312 316 320 314 306 306 305 300 300 303 300 297 298 300 298 301 293 289 286 285 289 284 284 287 287 288 285 284 284 287 296 299 301 287 288 301 301 301
314 314 315 316 317 317 313 315 321 313 308 308 310 308 304 303 301 297 299 298 296 294 290 288 287 286 288 287 289 287 287 287 284 285 282 280 298 299 291 295 298 299 300 300
313 314 316 316 316 316 314 314 321 321 312 309 315 314 313 311 308 303 302 298 297 295 292 291 290 286 287 286 282 291 285 288 285 288 289 295 298 297 299 299 296 298 298 301
313 314 315 315 316 316 314 311 316 316 311 309 310 309 313 314 312 310 300 301 302 299 300 294 291 286 290 284 285 286 290 292 287 286 292 291 295 296 297 297 297 298 301 302
313 314 315 315 315 316 314 310 315 316 311 303 306 316 312 316 313 312 309 306 305 304 302 296 293 288 294 287 288 286 290 290 288 288 291 291 294 294 296 296 298 299 301 302
312 314 314 314 315 315 314 315 318 320 311 302 304 311 313 314 313 310 309 307 303 301 297 296 293 294 293 294 292 287 292 289 286 285 292 291 291 295 297 295 296 298 300 300
312 313 314 314 315 314 312 312 317 316 317 306 300 313 312 312 312 311 309 308 306 303 300 300 297 299 294 289 286 293 294 295 296 292 295 295 296 297 298 296 296 298 299 300
312 312 313 313 313 311 309 309 313 311 317 305 302 304 311 314 311 308 309 310 306 306 302 300 298 297 297 292 286 294 297 297 297 298 297 294 295 294 298 298 297 298 298 300
311 312 312 313 312 310 308 315 313 315 311 307 301 303 308 312 306 304 310 305 305 304 302 302 299 299 296 287 293 298 301 300 298 299 299 297 298 299 298 299 298 295 295 297
311 312 312 312 309 310 314 317 315 316 310 302 305 301 298 313 310 309 307 306 299 306 300 300 300 290 285 290 296 298 300 298 298 300 299 299 297 298 298 298 298 296 295 296
311 310 310 309 317 315 315 310 306 306 307 307 301 305 300 308 307 305 305 305 299 294 299 303 295 291 298 300 302 301 302 303 302 297 296 297 297 298 298 298 299 299 298 298
311 312 311 317 316 315 310 305 304 305 302 305 306 306 300 309 303 304 306 300 301 292 297 296 295 294 299 304 302 303 305 305 303 303 302 302 300 298 298 298 300 299 299 298
312 310 314 318 313 310 305 304 306 304 302 302 303 305 310 310 313 303 303 299 299 292 300 295 290 297 301 303 303 303 304 303 304 305 304 303 303 300 300 301 300 300 301 300
316 313 312 311 311 297 301 296 301 302 307 307 306 303 306 308 308 302 302 297 296 303 295 291 291 298 301 303 302 305 306 306 305 305 306 304 305 303 301 301 302 301 301 302
311 311 293 305 303 306 304 304 307 311 309 308 310 308 305 305 300 302 297 300 298 290 287 288 294 297 300 303 304 304 304 303 303 304 304 303 302 302 304 302 301 301 301 301
311 312 295 305 309 310 310 311 311 313 312 310 307 309 305 299 297 302 297 294 289 289 288 294 300 301 303 302 303 302 304 302 303 304 302 302 302 301 302 301 301 301 302 302
312 311 307 309 309 305 306 306 308 313 312 315 310 304 300 298 300 296 293 290 287 293 297 300 302 303 303 303 304 305 303 304 302 303 303 303 301 301 300 303 300 301 302 301
311 310 313 310 309 309 310 308 312 319 307 304 303 298 297 301 296 293 298 294 297 300 300 302 303 303 304 304 305 304 304 305 304 304 301 302 304 302 301 300 303 300 303 302
Wind_Speed
21 22 21 22 24 29 8 5 1 5 2 2 2 6 6 9 14 13 8 2 7 8 11 8 7 8 8 10 9 6 7 1 5 14 19 18 14 9 5 3 9 4 4 9
20 22 21 20 18 15 7 6 1 8 13 6 6 5 12 13 10 14 12 11 12 10 6 5 8 9 9 12 8 4 8 5 5 11 7 4 8 13 10 9 2 11 3 8
20 21 21 21 19 12 5 4 4 5 9 9 12 8 11 11 16 12 8 6 7 9 8 7 2 6 4 7 7 7 4 1 4 6 12 11 14 19 19 11 3 6 6 10
19 21 22 22 24 21 3 2 6 7 5 6 9 11 10 12 9 9 13 8 16 13 7 8 8 12 14 13 9 5 4 3 6 10 15 17 17 18 19 18 15 4 9 14
19 19 21 22 25 31 2 4 3 4 3 8 13 12 6 10 9 8 9 9 12 8 3 9 10 10 7 5 7 3 2 4 7 11 14 16 18 17 17 19 19 16 12 19
18 18 19 21 23 23 4 5 5 1 3 9 6 4 5 6 3 4 3 6 5 8 13 11 8 9 11 11 7 5 4 1 4 8 9 14 15 12 15 17 17 16 13 15
16 16 17 18 18 14 3 3 4 3 4 7 5 7 5 4 4 4 6 5 4 6 9 9 10 10 11 12 11 7 6 5 2 5 2 4 11 8 16 18 18 16 19 13
14 15 16 17 18 18 4 5 5 5 4 7 5 11 9 4 7 3 6 7 3 5 9 3 6 2 2 4 7 9 5 3 3 4 5 11 14 13 2 7 9 17 17 20
14 13 14 16 17 19 5 5 5 3 3 7 10 7 6 2 5 2 2 4 4 4 2 3 2 3 4 4 8 5 4 6 8 3 3 7 2 8 9 3 7 13 16 16
12 12 13 14 15 16 5 3 5 3 3 5 6 5 4 3 3 3 5 4 5 5 4 3 2 2 2 4 5 7 5 5 5 6 6 5 9 7 3 6 4 13 12 12
10 10 11 12 13 13 7 4 3 3 4 4 7 3 3 4 5 3 5 4 5 4 3 2 2 2 2 3 5 4 4 5 3 1 5 6 17 5 5 8 8 9 11 11
10 9 9 9 10 10 8 3 2 1 3 4 8 7 5 1 4 1 3 3 5 2 1 1 1 2 3 3 3 6 1 2 4 4 2 7 11 10 10 11 12 13 13 10
8 8 8 8 9 9 7 4 5 5 3 7 6 7 9 6 3 4 3 2 4 4 3 2 1 2 2 1 1 3 1 4 3 6 4 11 8 11 9 10 10 15 14 14
7 6 6 7 8 9 7 4 7 5 3 4 2 4 4 6 5 4 4 7 5 8 3 2 3 2 3 3 2 3 4 5 4 5 6 12 6 10 11 13 13 14 12 11
8 6 4 6 8 9 7 6 6 3 2 4 6 11 9 9 6 6 6 5 6 4 2 3 4 3 3 2 3 4 4 5 1 2 8 5 7 11 13 14 13 14 12 11
7 7 4 5 7 8 5 2 4 6 3 2 4 2 3 1 4 7 8 5 4 4 4 3 4 3 5 3 3 5 8 5 6 4 2 5 8 9 7 11 12 12 11 9
8 7 6 3 5 3 4 3 1 6 3 2 5 4 2 8 4 3 3 5 4 5 4 4 5 4 4 1 3 6 11 12 10 10 7 7 4 5 8 9 9 12 10 10
8 7 6 6 6 8 6 4 10 5 3 3 4 3 4 10 5 3 3 4 3 3 4 1 4 5 0 4 8 9 8 10 11 14 9 7 7 8 5 6 5 10 9 10
7 7 6 3 4 4 2 8 8 1 2 4 4 4 6 12 4 3 4 5 3 4 4 4 5 3 5 8 6 5 10 10 9 12 9 6 11 8 4 5 4 5 8 9
5 4 4 4 2 13 8 3 2 1 2 4 4 5 9 5 7 5 3 3 2 2 3 2 4 4 4 8 6 3 8 8 9 11 8 11 10 7 4 4 3 2 5 6
4 5 3 2 4 2 2 3 4 4 3 2 4 1 6 3 8 1 2 3 3 3 2 3 5 3 5 8 6 5 6 3 5 3 2 8 6 4 4 5 4 1 3 2
4 4 6 4 4 4 5 4 2 2 2 4 4 4 4 4 1 2 1 2 4 4 3 4 4 4 7 4 5 5 7 8 3 5 4 6 8 5 5 4 6 4 3 3
3 3 4 3 4 1 3 2 2 3 3 4 3 6 2 1 3 0 1 3 1 4 4 3 3 4 4 8 16 2 4 7 8 4 0 8 3 9 7 4 3 7 5 5
4 4 5 5 4 2 4 6 6 3 4 7 5 4 1 5 2 4 3 3 3 3 3 2 3 4 8 8 7 4 2 10 6 5 4 8 5 1 6 5 3 2 5 5
5 4 4 4 5 10 9 7 5 4 2 5 3 1 3 2 3 3 4 3 5 1 1 3 4 6 7 3 5 6 5 3 5 1 6 10 8 5 6 6 5 5 3 3
5 6 7 6 5 3 2 4 4 1 2 3 2 2 2 2 1 5 5 3 1 1 4 3 3 5 1 4 4 3 0 1 3 5 3 5 4 6 7 2 3 1 6 6
5 4 1 4 6 4 3 3 2 1 3 2 3 4 4 4 4 3 3 2 1 4 3 5 8 4 2 2 4 4 5 5 10 7 4 5 1 5 2 3 2 3 5 6
Wind_Direction
335 335 341 344 339 335 5 336 59 294 217 318 214 72 14 15 8 18 12 342 9 17 8 3 357 3 68 51 36 13 14 4 312 294 301 307 311 313 315 169 280 258 203 273
338 335 339 344 341 3 320 316 276 39 12 18 18 72 87 61 19 29 8 12 20 8 354 2 19 8 28 65 52 35 358 337 345 321 313 330 345 335 317 299 279 270 270 288
338 337 339 339 336 339 312 299 15 21 26 6 29 357 26 70 45 28 0 359 352 9 3 352 351 331 344 81 98 106 90 256 256 265 295 317 310 318 323 327 302 281 273 312
343 341 341 342 335 331 271 230 64 51 19 354 59 47 30 40 20 348 31 38 19 17 360 340 354 2 358 357 58 34 20 240 275 284 286 294 290 295 305 307 306 287 306 300
345 344 344 346 341 332 253 53 14 100 48 2 60 15 43 36 15 360 14 11 0 340 328 360 345 349 345 312 348 349 357 291 310 310 311 298 292 290 280 286 296 294 297 290
345 347 347 352 354 346 2 355 333 256 54 65 57 48 47 45 60 3 71 27 352 340 10 339 319 310 299 287 281 275 285 275 338 281 346 332 293 280 286 280 282 292 286 296
345 349 349 355 356 5 273 6 301 10 45 65 90 60 34 9 39 347 332 73 5 7 327 307 297 268 255 263 265 260 266 252 195 257 264 269 255 242 268 280 281 6 354 354
347 351 348 355 355 356 328 8 355 345 61 33 30 55 20 72 135 235 22 17 71 328 308 339 325 72 79 272 290 288 304 294 208 234 253 296 283 269 15 4 349 20 15 7
346 353 352 353 354 360 333 40 338 332 353 32 6 48 81 357 14 5 93 41 41 0 311 73 344 20 339 344 326 37 0 287 247 159 222 228 55 32 19 332 287 5 12 6
345 356 351 352 356 2 341 319 3 296 331 42 32 26 360 48 108 271 92 33 31 9 6 5 9 43 273 342 317 355 315 307 266 234 231 264 347 339 323 226 306 348 2 355
341 350 347 348 355 3 355 295 46 7 315 21 329 59 20 356 11 55 332 87 30 26 48 11 8 16 16 309 347 345 310 322 307 266 203 259 3 8 357 343 339 345 347 339
341 348 339 344 353 352 349 278 162 173 253 300 314 307 144 202 160 241 71 112 73 79 113 59 31 11 0 348 294 357 50 65 295 317 345 37 337 350 20 10 328 326 321 320
332 340 339 352 348 345 348 303 319 305 294 287 210 238 220 207 202 114 149 149 123 132 178 110 90 155 151 326 320 314 333 51 253 345 54 6 20 9 356 351 317 305 305 312
322 329 332 342 335 330 336 307 310 311 299 278 251 154 188 182 248 119 70 118 99 129 143 163 199 180 166 196 205 206 225 311 271 253 284 320 5 350 332 326 308 302 298 298
307 317 329 321 327 320 297 265 262 252 305 309 308 308 209 164 218 157 149 156 140 151 164 194 206 127 155 177 191 241 201 206 240 266 300 284 282 318 327 324 315 317 311 309
298 304 325 324 312 337 300 256 65 8 19 300 284 99 177 76 165 174 165 205 230 181 184 186 187 117 140 190 233 218 203 221 220 239 243 275 286 303 303 313 323 316 316 322
288 289 295 302 306 296 253 294 338 359 318 257 269 211 159 161 218 195 203 200 210 212 202 192 167 149 192 231 221 211 202 214 226 236 232 249 246 285 292 296 338 337 336 342
284 285 289 291 303 269 275 225 219 165 254 237 262 246 153 172 184 167 249 211 193 217 209 235 124 110 103 234 244 235 201 201 212 237 230 248 260 256 274 325 320 2 351 348
285 285 288 265 211 231 127 116 111 195 306 307 278 278 290 158 152 174 195 156 211 237 207 196 127 117 213 218 234 198 167 183 198 208 237 254 256 271 241 305 326 353 356 360
275 253 209 229 156 117 119 62 159 165 219 224 262 313 291 258 157 193 169 142 174 271 241 150 133 214 215 208 216 245 177 170 171 188 214 234 245 247 249 256 0 323 358 9
225 219 225 96 151 213 170 241 200 174 226 224 308 46 258 23 315 51 175 143 167 245 154 241 186 176 180 179 161 244 105 148 198 101 145 212 207 256 274 199 157 328 140 51
304 305 270 202 208 199 236 201 82 267 247 230 241 239 201 222 246 113 141 207 172 238 188 8 7 35 22 340 184 232 146 178 167 116 245 282 170 199 280 201 177 188 164 204
248 220 247 195 227 23 283 230 207 236 231 230 261 284 244 11 83 197 251 276 320 5 93 63 360 352 5 301 291 35 31 48 120 162 197 295 110 159 232 155 183 197 192 166
251 227 281 214 221 112 192 220 238 203 225 278 341 312 29 60 327 264 213 118 88 83 41 84 263 228 251 273 286 274 299 92 158 153 120 274 95 324 152 146 277 323 215 168
263 242 239 230 86 61 355 336 298 229 140 307 297 301 58 92 281 250 19 62 58 54 236 235 222 250 267 346 1 9 94 127 46 239 198 233 175 224 177 172 208 299 140 149
239 235 273 311 328 49 228 260 250 307 157 140 43 336 312 267 185 40 17 63 266 225 216 167 199 260 314 331 334 16 266 72 101 65 336 313 127 68 31 92 126 352 25 104
247 241 120 142 125 224 241 232 292 90 58 91 102 298 342 42 41 43 26 18 282 267 151 113 235 209 77 344 345 355 349 26 106 179 98 322 47 101 189 326 107 145 104 134